Location: *
(33.3200°N, 8.3381°W)
Time: 13:55:06
(UTC+00:00)

Cosmos 1943 Rocket - Pass Details

Date: 09 April 2020
Orbit: 811 x 845 km, 71.0° (Epoch: 05 June)

Event Time Altitude Azimuth Distance (km) Brightness Sun altitude
Rises 20:11:19 0° 324° (NW) 3,360 6.3 -15.2°
Reaches altitude 10° 20:14:06 10° 312° (NW) 2,429 5.7 -15.7°
Maximum altitude 20:18:36 26° 258° (WSW) 1,584 4.3 -16.6°
Drops below altitude 10° 20:23:08 10° 203° (SSW) 2,436 4.6 -17.5°
Sets 20:25:57 0° 191° (S) 3,372 5.2 -18.0°
